Regional Weather Roundup
Issued by NWS

Home | Current Version | Previous Version | Graphics & Text | Print | Product List | Glossary On
Versions: 1 2 3 4 5 6 7 8 9 10 11 12 13 14 15 16 17 18 19 20 21 22 23 24 25 26 27
000
ASUS45 KSLC 050810
RWRUT

UTAH REGIONAL WEATHER ROUNDUP
NATIONAL WEATHER SERVICE SALT LAKE CITY UT
200 AM MDT THU MAY 05 2016

UTZ001>011-023>025-050900-

NORTHERN UTAH

CITY           SKY/WX    TMP DP  RH WIND       PRES   REMARKS
BRIGHAM CITY   MOCLDY    58  39  49 NW8       29.96S
HILL AFB       CLOUDY    63  34  34 E16       29.98S
LOGAN          MOCLDY    50  43  77 N5        29.99S
OGDEN          MOCLDY    62  36  37 S10       29.95F
PROVO AIRPORT  CLOUDY    64  34  32 SE16      29.99S
SALT LAKE CITY CLOUDY    66  37  34 S10       29.95S
VERNAL         CLOUDY    49  32  52 NW6       30.10S
WENDOVER       MOCLDY    57  41  54 SW3       29.93F
HEBER CITY     CLOUDY    48  32  53 CALM      30.06F

$$

UTZ012>022-026-027-050900-

SOUTHERN/CENTRAL UTAH

CITY           SKY/WX    TMP DP  RH WIND       PRES   REMARKS
BLANDING       PTCLDY    54  27  34 NE12      30.20F
BRYCE CANYON   PTCLDY    36  31  82 W3        30.19F
CEDAR CITY     MOCLDY    55  33  43 S5        30.02F
DELTA          MOCLDY    55  36  47 SE9       29.97F
HANKSVILLE     MOCLDY    61  32  33 CALM      30.03S
MILFORD        MOCLDY    50  34  54 S7        29.99S
MOAB/CYNLANDS  PTCLDY    62  30  29 E7        30.01F
PRICE          MOCLDY    53  28  38 CALM      30.11S
ST GEORGE      CLOUDY    68  37  32 SE7       29.89F
KANAB          PTCLDY    52  37  58 NE6       30.05F

$$

REGIONAL REPORTS     COLORADO/ARIZONA

CITY           SKY/WX    TMP DP  RH WIND       PRES   REMARKS
CRAIG, CO      CLOUDY    38  33  82 SE3       30.19R
GRAND JUNCTION CLOUDY    55  34  45 E15       30.09S
RIFLE          CLOUDY    48  33  56 SW3       30.17S
MONTROSE       CLOUDY    51  30  44 SE9       30.19S
CORTEZ         CLEAR     42  30  62 NE6       30.18S
PAGE, AZ       CLEAR     66  27  23 CALM      29.98S
GRAND CANYON   PTCLDY    39  30  70 CALM      30.15R
KINGMAN        MOCLDY    67  28  23 SE15      29.90F
FLAGSTAFF      CLEAR     38  29  70 CALM      30.18S

$$

REGIONAL REPORTS    NEVADA/IDAHO/WYOMING

CITY           SKY/WX    TMP DP  RH WIND       PRES   REMARKS
LAS VEGAS, NV  CLOUDY    76  29  17 S7        29.74F
ELY            MOCLDY    44  29  55 S12       30.03F
ELKO           MOCLDY    53  40  61 NE6       29.94S
POCATELLO, ID  CLOUDY    51  41  68 NW9       29.98S
BURLEY         MOCLDY    54  45  71 CALM      29.91S
EVANSTON, WY   CLOUDY    51  27  39 E6        30.16S
ROCK SPRINGS   CLOUDY    51  27  39 S6        30.15F
KEMMERER         N/A     43  32  65 N10       30.18S

$$




USA.gov is the U.S. government's official web portal to all federal, state and local government web resources and services.